Regional Weather Roundup
Issued by NWS

Home | Current Version | Previous Version | Text Only | Print | Product List | Glossary On
Versions: 1 2 3 4 5 6 7 8 9 10 11 12 13 14 15 16 17 18 19 20 21 22 23 24 25 26 27 28 29 30 31 32 33 34 35 36 37 38 39 40 41 42 43 44 45 46 47 48 49 50
000
ASPQ40 PGUM 310714
RWRPQ
WEATHER ROUNDUP FOR THE MARIANAS AND MICRONESIA
NATIONAL WEATHER SERVICE TIYAN GU
500 PM CHST FRI JUL 31 2015

GUZ001>004-310800-
MARIANA ISLANDS-

CITY           SKY/WX    TMP DP  RH WIND       PRES   REMARKS
GUAM AIRPORT   MOSUNNY   84  75  74 SE7       29.76R HX  92
ANDERSEN AFB   NOT AVBL
ROTA AIRPORT   NOT AVBL
TINIAN AP      NOT AVBL
SAIPAN AP      NOT AVBL

$$

PMZ161-310800-
REPUBLIC OF PALAU-

CITY           SKY/WX    TMP DP  RH WIND       PRES   REMARKS
KOROR AP       PTSUNNY   84  77  79 W13G18    29.71F HX  94
KOROR WSO      CLOUDY    82  77  83 W6        29.74F HX  91

$$

PMZ171>174-310800-
FEDERATED STATES OF MICRONESIA-

CITY           SKY/WX    TMP DP  RH WIND       PRES   REMARKS
YAP AIRPORT    PTSUNNY   86  77  74 VRB5      29.71F HX  97
CHUUK AP       CLOUDY    84  77  79 W9        29.70S HX  94
POHNPEI AP     LGT RAIN  75  75 100 S9        29.67S
POHNPEI WSO    LGT RAIN  75  75 100 SW2       29.74R
KOSRAE AP      LGT RAIN  79  77  94 SW6       29.71R

$$

PMZ181-310800-
REPUBLIC OF THE MARSHALL ISLANDS-

CITY           SKY/WX    TMP DP  RH WIND       PRES   REMARKS
KWAJALEIN AP   PTCLDY    82  75  78 E6        29.71R
MAJURO AP      MOCLDY    82  77  83 E9        29.67R HX  91
MAJURO WSO     CLOUDY    84  79  84 E8        29.68R HX  96

$$



USA.gov is the U.S. government's official web portal to all federal, state and local government web resources and services.